This is the latest recevied weather packets stored in our database for station/object K3TLB-13. If no packets are shown the sender has not sent any weather packets the latest 10 day(s).
| Time | Temp. | Humidity | Pressure | Rain* | Wind** | Luminosity | Snow |
|---|---|---|---|---|---|---|---|
| 1778152436 | 10.56° C | 62% | 1013.1 hPa | 0 mm | - | - | - |
| 1778152136 | 10.56° C | 63% | 1013 hPa | 0 mm | - | - | - |
| 1778151836 | 10° C | 61% | 1012.8 hPa | 0 mm | - | - | - |
| 1778151536 | 10° C | 61% | 1012.8 hPa | 0 mm | - | - | - |
| 1778151236 | 10° C | 62% | 1012.9 hPa | 0 mm | - | - | - |
| 1778150936 | 10° C | 60% | 1012.8 hPa | 0 mm | - | - | - |
| 1778150636 | 10° C | 59% | 1012.7 hPa | 0 mm | - | - | - |
| 1778150337 | 10.56° C | 61% | 1012.8 hPa | 0 mm | - | - | - |
| 1778150036 | 10.56° C | 60% | 1012.8 hPa | 0 mm | - | - | - |
| 1778149736 | 10.56° C | 59% | 1012.7 hPa | 0 mm | - | - | - |
| 1778149439 | 10.56° C | 58% | 1012.4 hPa | 0 mm | - | - | - |
| 1778149167 | 10.56° C | 58% | 1012.3 hPa | 0 mm | - | - | - |
| 1778149136 | 10.56° C | 58% | 1012.3 hPa | 0 mm | - | - | - |
| 1778148836 | 10.56° C | 57% | 1012.2 hPa | 0 mm | - | - | - |
| 1778148536 | 10° C | 60% | 1012.1 hPa | 0 mm | - | - | - |
| 1778148236 | 10° C | 61% | 1012.1 hPa | 0 mm | - | - | - |
| 1778147937 | 10° C | 64% | 1012 hPa | 0 mm | - | - | - |
| 1778147636 | 10° C | 64% | 1012 hPa | 0 mm | - | - | - |
| 1778147462 | 10.56° C | 66% | 1012.1 hPa | 0 mm | - | - | - |
| 1778147382 | 10.56° C | 66% | 1012.1 hPa | 0 mm | - | - | - |
| 1778147336 | 10.56° C | 66% | 1012.1 hPa | 0 mm | - | - | - |
| 1778147036 | 10.56° C | 65% | 1012.1 hPa | 0 mm | - | - | - |
| 1778146738 | 10.56° C | 65% | 1012.1 hPa | 0 mm | - | - | - |
| 1778146539 | 10.56° C | 64% | 1012.1 hPa | 0 mm | - | - | - |
| 1778146436 | 10.56° C | 64% | 1012.1 hPa | 0 mm | - | - | - |
* Rain latest hour (hover to see other rain measurements)
** Current wind speed in m/s (hover to see current wind gust speed)